QPF
0.00 0.00 0.01 0.00 0.04 0.09 0.02 0.01 0.02 0.03 0.01 0.00 0.02 0.04 0.03 0.02 0.01 0.01 0.01 0.00 0.02 0.01 0.00 0.00 0.00 0.00 0.00 0.00 0.00 0.00 0.00 0.00 0.00 0.00 0.00 0.00 0.00 0.00 0.00 0.00 0.00 0.01 0.01
0.00 0.00 0.00 0.00 0.02 0.06 0.02 0.02 0.01 0.02 0.01 0.01 0.02 0.01 0.01 0.00 0.00 0.01 0.01 0.00 0.00 0.00 0.00 0.00 0.00 0.00 0.00 0.00 0.00 0.00 0.00 0.00 0.00 0.01 0.00 0.00 0.00 0.00 0.00 0.00 0.02 0.01 0.02
0.00 0.00 0.00 0.00 0.05 0.03 0.03 0.03 0.02 0.01 0.02 0.01 0.01 0.01 0.00 0.00 0.00 0.00 0.00 0.00 0.00 0.00 0.00 0.00 0.00 0.00 0.00 0.00 0.00 0.00 0.00 0.00 0.00 0.01 0.01 0.00 0.00 0.00 0.00 0.01 0.00 0.04 0.03
0.00 0.00 0.00 0.05 0.05 0.07 0.05 0.09 0.02 0.01 0.02 0.01 0.01 0.00 0.00 0.00 0.00 0.00 0.00 0.00 0.01 0.01 0.00 0.00 0.00 0.00 0.00 0.00 0.00 0.00 0.00 0.00 0.00 0.00 0.02 0.00 0.00 0.00 0.00 0.03 0.01 0.11 0.06
0.00 0.00 0.00 0.03 0.03 0.12 0.07 0.03 0.03 0.02 0.00 0.01 0.01 0.00 0.00 0.00 0.00 0.00 0.00 0.00 0.00 0.01 0.00 0.00 0.00 0.00 0.00 0.00 0.00 0.00 0.00 0.00 0.00 0.00 0.00 0.00 0.00 0.00 0.00 0.00 0.01 0.07 0.03
0.00 0.00 0.00 0.02 0.03 0.17 0.17 0.10 0.20 0.04 0.00 0.00 0.01 0.02 0.03 0.03 0.01 0.00 0.02 0.01 0.00 0.00 0.00 0.00 0.00 0.00 0.00 0.00 0.00 0.00 0.00 0.00 0.00 0.01 0.00 0.00 0.00 0.00 0.00 0.00 0.00 0.01 0.01
0.00 0.00 0.00 0.01 0.02 0.28 0.30 0.20 0.07 0.03 0.03 0.00 0.00 0.02 0.02 0.03 0.03 0.01 0.01 0.00 0.00 0.00 0.00 0.00 0.00 0.00 0.00 0.00 0.00 0.00 0.00 0.01 0.01 0.00 0.00 0.00 0.00 0.00 0.00 0.00 0.00 0.01 0.03
0.00 0.00 0.00 0.01 0.08 0.27 0.34 0.13 0.09 0.04 0.03 0.01 0.00 0.00 0.00 0.02 0.05 0.02 0.00 0.00 0.00 0.00 0.00 0.00 0.00 0.00 0.00 0.00 0.00 0.00 0.01 0.01 0.00 0.00 0.00 0.00 0.00 0.00 0.00 0.00 0.00 0.00 0.00
0.00 0.00 0.00 0.00 0.03 0.24 0.18 0.17 0.12 0.19 0.09 0.00 0.00 0.00 0.02 0.07 0.01 0.01 0.00 0.00 0.00 0.00 0.00 0.00 0.00 0.00 0.00 0.00 0.00 0.00 0.00 0.01 0.02 0.01 0.00 0.00 0.00 0.00 0.00 0.00 0.00 0.00 0.00
0.00 0.01 0.01 0.02 0.02 0.13 0.10 0.43 0.22 0.16 0.02 0.00 0.00 0.00 0.03 0.10 0.01 0.06 0.01 0.00 0.00 0.00 0.00 0.00 0.00 0.00 0.00 0.00 0.00 0.02 0.03 0.05 0.01 0.01 0.00 0.00 0.00 0.00 0.00 0.00 0.00 0.00 0.00
0.01 0.01 0.01 0.01 0.06 0.03 0.04 0.13 0.26 0.19 0.01 0.00 0.00 0.00 0.03 0.01 0.00 0.00 0.00 0.00 0.00 0.00 0.00 0.00 0.00 0.00 0.00 0.00 0.00 0.00 0.02 0.13 0.06 0.01 0.01 0.00 0.00 0.00 0.00 0.00 0.00 0.00 0.00
0.00 0.01 0.00 0.00 0.00 0.02 0.05 0.01 0.02 0.04 0.00 0.00 0.00 0.00 0.00 0.00 0.00 0.00 0.00 0.00 0.00 0.00 0.00 0.00 0.00 0.00 0.00 0.02 0.04 0.00 0.00 0.03 0.02 0.13 0.08 0.00 0.00 0.00 0.00 0.00 0.00 0.00 0.00
0.00 0.00 0.00 0.01 0.04 0.07 0.01 0.00 0.01 0.00 0.00 0.00 0.00 0.00 0.00 0.00 0.00 0.00 0.00 0.00 0.00 0.00 0.00 0.00 0.00 0.00 0.00 0.00 0.01 0.00 0.00 0.00 0.00 0.04 0.01 0.00 0.00 0.00 0.00 0.00 0.00 0.00 0.00
0.00 0.00 0.00 0.01 0.04 0.04 0.00 0.00 0.00 0.00 0.00 0.00 0.00 0.00 0.00 0.00 0.00 0.00 0.00 0.00 0.00 0.00 0.00 0.00 0.00 0.00 0.00 0.00 0.00 0.00 0.00 0.00 0.00 0.01 0.00 0.00 0.00 0.00 0.00 0.00 0.00 0.00 0.00
0.00 0.00 0.00 0.01 0.02 0.01 0.00 0.00 0.00 0.00 0.00 0.00 0.00 0.00 0.00 0.00 0.00 0.00 0.00 0.00 0.00 0.00 0.00 0.00 0.00 0.00 0.00 0.00 0.00 0.00 0.00 0.00 0.00 0.00 0.01 0.00 0.00 0.00 0.00 0.00 0.00 0.00 0.00
0.00 0.00 0.00 0.00 0.00 0.01 0.00 0.00 0.00 0.00 0.00 0.00 0.00 0.00 0.00 0.00 0.00 0.01 0.00 0.00 0.00 0.00 0.00 0.00 0.00 0.00 0.00 0.00 0.00 0.00 0.00 0.00 0.00 0.03 0.02 0.01 0.00 0.00 0.00 0.00 0.00 0.00 0.00
0.00 0.00 0.00 0.00 0.01 0.03 0.01 0.00 0.00 0.00 0.00 0.00 0.00 0.00 0.00 0.00 0.00 0.00 0.00 0.00 0.00 0.00 0.00 0.00 0.00 0.00 0.00 0.02 0.00 0.00 0.00 0.00 0.00 0.05 0.03 0.06 0.01 0.00 0.00 0.00 0.03 0.06 0.05
0.00 0.00 0.00 0.00 0.00 0.00 0.02 0.04 0.00 0.00 0.00 0.00 0.00 0.00 0.00 0.00 0.00 0.00 0.00 0.01 0.01 0.00 0.00 0.03 0.03 0.00 0.00 0.02 0.05 0.02 0.01 0.01 0.02 0.02 0.02 0.11 0.08 0.02 0.00 0.04 0.25 0.17 0.09
0.00 0.00 0.00 0.00 0.00 0.00 0.00 0.01 0.00 0.00 0.00 0.00 0.00 0.00 0.00 0.00 0.00 0.00 0.01 0.03 0.02 0.01 0.00 0.05 0.01 0.00 0.00 0.00 0.00 0.00 0.00 0.00 0.00 0.01 0.04 0.17 0.21 0.07 0.06 0.45 0.77 0.47 0.16
0.00 0.00 0.00 0.00 0.00 0.00 0.00 0.00 0.00 0.00 0.00 0.00 0.00 0.00 0.00 0.00 0.00 0.00 0.00 0.00 0.01 0.00 0.01 0.01 0.00 0.00 0.00 0.00 0.00 0.00 0.00 0.00 0.00 0.01 0.08 0.09 0.23 0.08 0.12 0.28 0.24 0.74 0.21
0.00 0.00 0.00 0.05 0.00 0.00 0.00 0.00 0.00 0.00 0.00 0.00 0.00 0.00 0.00 0.00 0.00 0.01 0.00 0.00 0.01 0.00 0.01 0.01 0.00 0.00 0.01 0.01 0.00 0.00 0.00 0.00 0.00 0.00 0.01 0.01 0.01 0.01 0.01 0.02 0.01 0.03 0.04
0.01 0.00 0.03 0.02 0.00 0.00 0.00 0.02 0.06 0.01 0.00 0.00 0.00 0.00 0.00 0.00 0.02 0.03 0.02 0.02 0.03 0.01 0.01 0.01 0.00 0.00 0.02 0.00 0.02 0.00 0.00 0.00 0.00 0.00 0.00 0.00 0.00 0.01 0.00 0.00 0.00 0.00 0.01
0.01 0.00 0.00 0.01 0.00 0.00 0.00 0.00 0.02 0.03 0.00 0.01 0.00 0.00 0.01 0.01 0.02 0.03 0.02 0.03 0.03 0.01 0.00 0.00 0.01 0.04 0.07 0.01 0.04 0.13 0.04 0.00 0.00 0.00 0.00 0.00 0.00 0.00 0.00 0.00 0.00 0.00 0.06
0.00 0.00 0.00 0.00 0.00 0.00 0.00 0.00 0.01 0.01 0.02 0.00 0.00 0.00 0.00 0.01 0.05 0.01 0.02 0.02 0.01 0.02 0.02 0.01 0.02 0.02 0.01 0.04 0.01 0.07 0.15 0.10 0.01 0.00 0.00 0.00 0.00 0.00 0.00 0.00 0.00 0.01 0.03
0.00 0.00 0.00 0.00 0.00 0.00 0.00 0.00 0.00 0.01 0.00 0.00 0.00 0.02 0.02 0.01 0.01 0.02 0.03 0.01 0.01 0.01 0.04 0.04 0.02 0.18 0.11 0.01 0.01 0.00 0.00 0.00 0.00 0.00 0.00 0.00 0.00 0.00 0.00 0.00 0.00 0.00 0.00
0.00 0.00 0.00 0.00 0.00 0.00 0.00 0.00 0.00 0.00 0.00 0.00 0.00 0.02 0.03 0.02 0.03 0.05 0.10 0.12 0.09 0.11 0.12 0.06 0.00 0.07 0.13 0.05 0.11 0.07 0.01 0.01 0.00 0.01 0.00 0.00 0.00 0.00 0.00 0.00 0.00 0.00 0.00
MSLP
1012.65 1012.43 1012.48 1012.69 1012.93 1013.08 1013.36 1013.60 1013.82 1013.95 1014.15 1014.34 1014.71 1014.95 1015.26 1015.59 1015.89 1016.18 1016.46 1016.77 1017.10 1017.29 1017.51 1017.67 1017.81 1017.96 1018.15 1018.29 1018.39 1018.42 1018.52 1018.64 1018.62 1018.66 1018.64 1018.73 1018.80 1018.81 1018.91 1019.10 1019.29 1019.47 1019.56
1012.26 1012.47 1012.47 1012.88 1013.11 1013.27 1013.59 1013.89 1014.15 1014.37 1014.58 1014.84 1015.18 1015.34 1015.61 1015.92 1016.25 1016.51 1016.80 1017.03 1017.33 1017.53 1017.72 1017.87 1017.97 1018.11 1018.22 1018.38 1018.47 1018.61 1018.66 1018.74 1018.79 1018.84 1018.77 1018.83 1018.83 1018.93 1019.09 1019.29 1019.45 1019.47 1019.61
1012.05 1012.54 1012.69 1013.00 1013.33 1013.53 1013.76 1014.13 1014.35 1014.72 1014.96 1015.29 1015.59 1015.78 1016.00 1016.27 1016.58 1016.81 1017.08 1017.27 1017.50 1017.65 1017.86 1018.00 1018.15 1018.26 1018.34 1018.49 1018.61 1018.72 1018.73 1018.80 1018.95 1018.94 1018.90 1019.02 1018.96 1019.04 1019.21 1019.39 1019.51 1019.68 1019.75
1011.68 1012.43 1012.83 1013.10 1013.52 1013.78 1014.04 1014.23 1014.59 1014.88 1015.28 1015.67 1015.90 1016.17 1016.33 1016.55 1016.82 1017.09 1017.29 1017.51 1017.67 1017.83 1017.97 1018.12 1018.33 1018.40 1018.50 1018.70 1018.80 1018.84 1018.88 1018.90 1018.94 1018.94 1018.95 1019.06 1018.93 1019.12 1019.13 1019.31 1019.44 1019.64 1019.82
1011.78 1012.34 1012.85 1013.27 1013.64 1013.92 1014.26 1014.45 1014.86 1015.14 1015.55 1015.97 1016.22 1016.41 1016.61 1016.82 1017.03 1017.31 1017.57 1017.77 1017.92 1018.05 1018.15 1018.29 1018.41 1018.53 1018.68 1018.81 1018.92 1018.94 1018.89 1018.89 1018.85 1018.89 1018.92 1018.73 1018.91 1019.11 1019.19 1019.31 1019.47 1019.63 1019.83
1012.16 1012.56 1012.98 1013.37 1013.80 1014.14 1014.56 1014.71 1015.01 1015.46 1015.83 1016.12 1016.46 1016.73 1017.03 1017.09 1017.25 1017.46 1017.72 1017.95 1018.11 1018.17 1018.27 1018.41 1018.52 1018.66 1018.74 1018.78 1018.88 1018.95 1019.00 1019.06 1018.94 1018.86 1018.80 1018.81 1019.01 1019.14 1019.28 1019.34 1019.47 1019.62 1019.80
1012.53 1012.92 1013.31 1013.52 1014.07 1014.51 1014.86 1015.09 1015.34 1015.72 1016.10 1016.38 1016.74 1016.96 1017.13 1017.38 1017.44 1017.67 1017.80 1018.08 1018.28 1018.39 1018.42 1018.57 1018.70 1018.76 1018.78 1018.75 1018.77 1018.89 1018.96 1018.95 1018.87 1018.82 1018.96 1019.06 1019.16 1019.31 1019.43 1019.43 1019.59 1019.77 1020.00
1012.68 1013.21 1013.48 1013.91 1014.29 1014.85 1015.13 1015.52 1015.77 1016.05 1016.32 1016.64 1016.88 1017.11 1017.35 1017.59 1017.72 1017.77 1017.99 1018.24 1018.42 1018.59 1018.63 1018.70 1018.78 1018.72 1018.67 1018.70 1018.65 1018.62 1018.77 1018.78 1018.68 1018.92 1018.94 1019.13 1019.18 1019.31 1019.39 1019.47 1019.57 1019.76 1019.94
1012.79 1013.41 1013.89 1014.37 1014.66 1015.20 1015.47 1015.63 1016.22 1016.41 1016.56 1016.87 1017.08 1017.25 1017.64 1017.78 1017.97 1018.06 1018.20 1018.34 1018.56 1018.73 1018.83 1018.73 1018.73 1018.66 1018.65 1018.70 1018.66 1018.75 1018.57 1018.60 1018.84 1018.86 1018.96 1019.01 1019.05 1019.19 1019.34 1019.45 1019.57 1019.76 1019.87
1013.27 1013.72 1014.37 1014.76 1015.30 1015.76 1016.08 1016.10 1016.23 1016.61 1016.78 1017.09 1017.25 1017.52 1017.80 1017.85 1018.04 1018.22 1018.36 1018.39 1018.62 1018.76 1018.83 1018.80 1018.69 1018.80 1018.85 1018.80 1018.76 1018.62 1018.24 1018.56 1019.12 1018.59 1018.68 1018.94 1018.91 1019.10 1019.18 1019.31 1019.40 1019.56 1019.72
1013.99 1014.53 1014.87 1015.34 1015.90 1016.26 1016.51 1016.70 1016.66 1016.77 1017.08 1017.25 1017.44 1017.79 1018.07 1018.21 1018.35 1018.35 1018.46 1018.46 1018.55 1018.71 1018.70 1018.71 1018.75 1018.79 1018.77 1018.68 1018.52 1018.64 1018.66 1018.96 1018.63 1018.36 1018.72 1018.94 1018.87 1018.82 1019.02 1019.24 1019.36 1019.42 1019.55
1014.53 1015.24 1015.64 1015.83 1016.26 1016.75 1017.01 1017.19 1017.16 1017.10 1017.29 1017.43 1017.69 1018.05 1018.26 1018.38 1018.59 1018.46 1018.40 1018.40 1018.45 1018.63 1018.63 1018.59 1018.69 1018.60 1018.48 1018.40 1018.61 1018.30 1018.19 1018.77 1018.50 1018.18 1018.14 1018.58 1018.93 1018.63 1018.66 1018.93 1019.07 1019.14 1019.22
1014.48 1015.31 1016.03 1016.35 1016.76 1017.02 1017.22 1017.25 1017.37 1017.38 1017.45 1017.69 1017.96 1018.25 1018.36 1018.67 1018.80 1018.63 1018.60 1018.39 1018.45 1018.52 1018.58 1018.44 1018.46 1018.50 1018.32 1018.00 1018.00 1017.75 1017.66 1017.85 1018.01 1018.17 1017.93 1018.08 1018.10 1018.25 1018.29 1018.29 1018.48 1018.78 1019.06
1014.80 1015.43 1016.32 1016.58 1016.98 1017.12 1017.34 1017.46 1017.60 1017.78 1017.74 1017.97 1018.23 1018.41 1018.70 1018.95 1018.88 1018.92 1018.66 1018.64 1018.64 1018.52 1018.43 1018.23 1018.25 1018.01 1017.90 1017.41 1017.33 1017.42 1017.34 1017.52 1017.84 1017.85 1017.93 1018.03 1017.81 1017.70 1018.08 1018.09 1018.04 1018.33 1018.77
1014.80 1015.50 1016.16 1016.73 1017.18 1017.33 1017.45 1017.72 1017.95 1018.07 1017.97 1018.13 1018.28 1018.42 1018.62 1018.79 1018.89 1018.78 1018.46 1018.31 1018.33 1018.13 1018.07 1018.10 1017.92 1017.55 1017.43 1017.21 1016.91 1016.86 1016.88 1016.78 1017.10 1017.28 1017.61 1017.51 1017.84 1017.89 1017.99 1018.09 1017.93 1018.08 1018.35
1014.26 1015.28 1015.95 1016.64 1016.97 1017.36 1017.57 1017.84 1018.13 1018.19 1018.07 1018.11 1018.16 1018.42 1018.60 1018.69 1018.60 1018.38 1018.17 1018.11 1018.04 1017.74 1017.69 1017.59 1017.47 1017.34 1017.35 1017.22 1016.99 1016.63 1016.41 1016.27 1016.32 1016.84 1017.04 1017.52 1017.54 1017.48 1017.36 1017.39 1017.60 1017.67 1017.66
1014.19 1014.91 1015.92 1016.46 1016.94 1017.34 1017.68 1017.98 1018.17 1018.09 1018.15 1018.14 1018.09 1018.26 1018.34 1018.36 1018.55 1018.45 1018.15 1017.74 1017.88 1017.46 1017.65 1017.52 1017.45 1017.20 1017.22 1017.11 1016.96 1016.57 1016.34 1016.10 1016.26 1016.73 1017.00 1016.84 1016.93 1017.26 1017.01 1017.21 1017.46 1017.60 1017.41
1014.07 1014.57 1015.35 1015.76 1016.55 1017.18 1017.49 1017.91 1018.08 1018.24 1018.33 1018.11 1018.12 1018.26 1018.23 1018.21 1018.34 1018.31 1018.30 1018.07 1017.73 1017.77 1017.67 1017.49 1017.78 1017.66 1017.38 1017.18 1017.16 1016.60 1016.14 1016.01 1016.06 1015.91 1015.77 1016.23 1016.63 1016.92 1016.98 1016.99 1016.87 1017.14 1017.00
1013.62 1014.23 1014.99 1015.67 1016.18 1016.70 1017.25 1017.63 1017.93 1018.11 1018.23 1017.89 1018.01 1018.13 1018.12 1018.16 1018.30 1018.38 1018.18 1018.31 1017.63 1017.51 1017.65 1017.71 1017.73 1017.61 1017.22 1017.07 1016.92 1016.52 1016.32 1015.95 1015.80 1015.57 1015.59 1016.50 1016.09 1016.27 1016.41 1016.67 1016.92 1017.04 1017.26
1013.33 1013.82 1014.58 1015.20 1015.80 1016.24 1016.86 1017.31 1017.86 1018.21 1018.37 1018.34 1018.01 1018.22 1018.24 1018.07 1017.98 1017.92 1017.79 1017.83 1017.59 1017.49 1017.53 1017.46 1017.37 1017.21 1017.24 1017.10 1016.68 1016.38 1016.13 1015.60 1015.55 1015.61 1015.16 1015.32 1014.72 1015.39 1015.79 1015.16 1016.63 1016.45 1015.78
1013.40 1013.86 1014.40 1015.12 1015.46 1015.88 1016.79 1017.49 1018.08 1018.20 1018.35 1018.39 1018.04 1018.04 1017.93 1018.00 1017.90 1017.93 1017.73 1017.42 1017.00 1017.28 1017.10 1017.02 1017.01 1017.07 1016.93 1016.70 1016.78 1016.30 1015.78 1015.37 1015.34 1015.61 1015.39 1015.02 1014.50 1014.79 1015.15 1014.81 1015.14 1015.46 1015.23
1013.42 1013.84 1014.47 1014.91 1015.36 1015.66 1016.07 1016.50 1017.07 1017.75 1018.00 1018.02 1017.95 1017.85 1017.78 1017.81 1017.55 1017.55 1017.38 1017.12 1016.97 1017.14 1017.03 1017.12 1017.11 1017.20 1016.89 1016.54 1016.93 1016.82 1016.28 1015.79 1015.42 1015.03 1014.91 1015.00 1014.72 1014.35 1014.47 1014.60 1014.53 1014.59 1015.08
1013.35 1013.72 1014.22 1014.67 1014.97 1015.20 1015.86 1016.61 1017.17 1017.84 1018.30 1018.49 1017.87 1017.59 1017.11 1016.96 1016.97 1017.02 1016.78 1016.91 1017.16 1017.29 1017.32 1017.25 1016.93 1017.17 1016.95 1016.47 1016.61 1016.82 1016.63 1016.61 1016.05 1015.12 1014.75 1014.57 1014.36 1014.34 1014.33 1014.02 1013.90 1014.02 1014.53
1012.87 1013.24 1013.79 1014.32 1014.55 1014.92 1015.72 1016.38 1016.90 1017.28 1017.80 1017.32 1016.89 1016.77 1016.60 1016.62 1016.48 1016.40 1016.44 1016.60 1016.87 1016.97 1017.28 1017.18 1017.10 1016.95 1016.96 1016.86 1016.40 1016.08 1016.35 1016.65 1016.36 1015.97 1015.12 1014.53 1014.16 1014.18 1014.01 1013.60 1013.34 1013.32 1013.81
1012.22 1012.82 1013.40 1013.94 1014.37 1014.72 1015.39 1015.84 1016.50 1016.72 1016.43 1016.33 1016.71 1016.67 1016.65 1016.55 1016.17 1016.42 1016.50 1016.56 1016.59 1016.71 1016.81 1016.67 1016.60 1016.95 1016.80 1016.78 1016.73 1016.44 1016.06 1015.85 1015.82 1016.16 1016.04 1015.28 1014.42 1013.93 1013.82 1013.53 1013.40 1013.34 1013.63
1011.66 1012.38 1013.20 1013.72 1014.19 1014.47 1014.96 1015.54 1015.97 1016.03 1015.99 1016.40 1016.57 1016.45 1016.29 1016.08 1015.98 1016.25 1016.73 1017.12 1016.15 1016.26 1016.13 1016.21 1016.26 1016.08 1016.30 1016.45 1016.33 1016.44 1016.26 1016.20 1016.12 1016.29 1016.13 1015.63 1015.20 1014.30 1013.81 1013.57 1013.78 1013.48 1013.49
Thickness
5791 5795 5795 5794 5793 5793 5793 5793 5792 5793 5792 5791 5790 5789 5786 5784 5781 5779 5777 5775 5772 5770 5768 5766 5766 5765 5763 5761 5761 5761 5761 5760 5760 5760 5761 5761 5761 5761 5760 5759 5759 5758 5757
5797 5795 5797 5794 5793 5793 5791 5791 5791 5790 5790 5789 5788 5788 5785 5783 5781 5778 5776 5775 5772 5770 5768 5767 5767 5766 5766 5764 5763 5763 5763 5762 5762 5761 5763 5763 5764 5763 5761 5760 5761 5761 5758
5799 5795 5795 5794 5793 5792 5792 5790 5790 5789 5789 5787 5786 5786 5785 5783 5779 5778 5776 5775 5773 5772 5770 5769 5768 5767 5767 5766 5764 5765 5765 5765 5763 5764 5764 5764 5765 5764 5763 5763 5763 5761 5759
5802 5797 5795 5794 5792 5791 5790 5791 5790 5788 5787 5785 5784 5783 5783 5782 5780 5778 5777 5776 5774 5773 5771 5771 5769 5768 5768 5767 5766 5767 5767 5767 5765 5766 5767 5767 5768 5767 5767 5766 5765 5764 5762
5801 5797 5795 5793 5791 5790 5789 5789 5788 5787 5785 5784 5783 5783 5782 5782 5781 5779 5777 5776 5775 5775 5774 5773 5771 5770 5769 5769 5768 5768 5770 5770 5770 5768 5769 5772 5772 5770 5770 5769 5768 5767 5765
5799 5796 5794 5792 5790 5788 5786 5787 5786 5785 5784 5783 5782 5781 5780 5781 5781 5780 5778 5777 5776 5776 5776 5775 5773 5772 5771 5771 5770 5770 5770 5770 5772 5772 5772 5772 5772 5771 5770 5770 5770 5769 5765
5797 5794 5792 5791 5788 5785 5783 5783 5783 5782 5782 5781 5781 5780 5781 5780 5781 5781 5780 5778 5777 5777 5777 5776 5775 5774 5773 5772 5772 5772 5771 5772 5773 5774 5773 5772 5771 5770 5769 5769 5768 5766 5765
5797 5792 5790 5787 5785 5782 5780 5778 5779 5779 5779 5779 5780 5780 5780 5780 5780 5782 5780 5779 5778 5777 5778 5777 5777 5775 5775 5775 5776 5775 5775 5775 5774 5775 5775 5774 5773 5771 5770 5770 5769 5768 5767
5795 5791 5787 5783 5783 5778 5777 5776 5775 5776 5777 5778 5779 5779 5779 5780 5779 5781 5780 5779 5778 5777 5778 5778 5778 5778 5778 5778 5778 5778 5780 5779 5777 5775 5776 5775 5774 5772 5771 5770 5770 5768 5766
5793 5788 5783 5781 5778 5774 5772 5773 5773 5773 5775 5776 5777 5778 5778 5779 5779 5779 5780 5780 5778 5778 5779 5779 5780 5779 5778 5779 5779 5781 5784 5781 5777 5781 5780 5777 5776 5774 5772 5770 5770 5769 5767
5786 5782 5779 5776 5772 5769 5769 5766 5767 5766 5771 5773 5775 5776 5776 5777 5777 5779 5780 5781 5780 5780 5781 5781 5780 5780 5780 5781 5782 5782 5782 5781 5786 5789 5784 5779 5777 5777 5774 5771 5770 5770 5769
5777 5773 5771 5768 5766 5764 5765 5764 5764 5766 5768 5772 5772 5773 5775 5775 5776 5780 5782 5782 5782 5781 5783 5783 5782 5782 5783 5784 5783 5786 5786 5782 5785 5787 5787 5781 5777 5779 5778 5774 5773 5772 5771
5778 5771 5764 5763 5761 5760 5762 5763 5762 5765 5767 5769 5770 5771 5774 5775 5775 5777 5781 5784 5783 5783 5785 5785 5785 5785 5786 5789 5789 5791 5792 5789 5789 5789 5788 5786 5785 5783 5782 5781 5779 5775 5772
5774 5769 5761 5758 5757 5757 5758 5760 5761 5762 5765 5768 5768 5770 5772 5773 5776 5777 5780 5783 5784 5785 5786 5788 5787 5790 5791 5794 5795 5795 5796 5795 5791 5791 5789 5786 5786 5787 5783 5782 5781 5778 5772
5771 5767 5762 5756 5754 5754 5754 5755 5756 5758 5760 5765 5767 5770 5772 5774 5776 5779 5784 5785 5787 5788 5789 5790 5791 5794 5796 5798 5799 5800 5799 5801 5798 5794 5790 5790 5783 5782 5779 5778 5778 5777 5774
5780 5769 5765 5758 5754 5754 5753 5753 5751 5755 5760 5764 5768 5769 5771 5775 5779 5783 5786 5790 5791 5792 5793 5795 5795 5796 5795 5797 5799 5802 5802 5803 5801 5796 5793 5789 5786 5786 5787 5786 5782 5780 5781
5780 5772 5762 5760 5754 5753 5753 5751 5751 5754 5755 5760 5764 5769 5775 5778 5780 5782 5786 5792 5792 5795 5794 5795 5795 5797 5797 5797 5800 5803 5804 5805 5802 5797 5791 5794 5793 5787 5788 5784 5781 5778 5777
5779 5774 5769 5768 5760 5754 5753 5751 5751 5753 5753 5757 5762 5768 5774 5779 5781 5784 5785 5790 5793 5793 5794 5795 5792 5794 5796 5797 5797 5803 5806 5806 5803 5800 5805 5800 5794 5791 5787 5782 5781 5775 5779
5788 5781 5772 5768 5764 5760 5754 5753 5754 5755 5755 5760 5765 5768 5774 5778 5781 5783 5786 5787 5792 5796 5793 5794 5792 5794 5796 5797 5799 5802 5803 5804 5804 5802 5804 5796 5794 5794 5788 5778 5777 5774 5771
5789 5786 5777 5772 5768 5766 5760 5756 5755 5755 5755 5757 5762 5766 5772 5778 5784 5787 5789 5788 5791 5794 5793 5795 5794 5797 5796 5795 5799 5800 5801 5805 5804 5800 5804 5803 5805 5797 5793 5783 5778 5780 5786
5790 5785 5782 5774 5773 5770 5761 5755 5753 5754 5755 5755 5759 5767 5774 5777 5781 5783 5787 5790 5794 5792 5794 5796 5797 5796 5794 5797 5794 5796 5800 5805 5803 5797 5798 5802 5806 5799 5796 5798 5794 5787 5790
5788 5788 5783 5778 5775 5773 5769 5765 5762 5757 5757 5756 5759 5767 5774 5778 5785 5788 5792 5796 5798 5794 5795 5794 5794 5792 5793 5797 5787 5786 5780 5790 5798 5801 5797 5793 5797 5798 5797 5792 5791 5790 5786
5789 5790 5786 5784 5782 5781 5774 5768 5763 5759 5756 5752 5763 5773 5781 5788 5793 5794 5798 5797 5795 5794 5793 5794 5796 5790 5787 5795 5793 5784 5776 5771 5781 5796 5797 5797 5795 5792 5791 5791 5792 5789 5784
5797 5800 5795 5791 5789 5786 5779 5773 5769 5763 5757 5768 5775 5785 5790 5792 5797 5799 5799 5798 5795 5794 5789 5790 5793 5793 5790 5784 5790 5794 5790 5782 5774 5768 5785 5790 5793 5789 5789 5793 5793 5791 5783
5807 5802 5800 5796 5794 5791 5787 5782 5775 5772 5778 5784 5784 5788 5789 5790 5792 5788 5788 5788 5790 5791 5790 5793 5794 5789 5788 5786 5783 5783 5785 5784 5784 5772 5764 5772 5784 5788 5787 5790 5789 5785 5779
5813 5810 5803 5799 5797 5796 5793 5789 5784 5783 5787 5784 5786 5788 5789 5795 5799 5794 5788 5782 5793 5794 5795 5792 5794 5797 5792 5788 5786 5783 5779 5774 5770 5766 5764 5767 5768 5780 5784 5786 5781 5779 5776